COSMOS 1275 DEB, 42164

Orbit data source: Space-Track

COSMOS 1275 DEB, 42164 is space debris in LEO originally from a launch on Thu, 04 Jun 1981 UTC launched from the Plesetsk Missile And Space Complex (PKMTR). Debris objects in space refer to the collection of defunct objects orbiting the Earth. Examples of debris include non-operational satellites, rocket bodies, and fragments generated from explosions, collisions, or faulty payload assembly.

Loading next visibility...
Identifier
42164, 1981-053SC
Orbit
LEO
Last TLE update
23 hours ago
Origin
Manufacturer
Unknown
Mission
Spacecraft
Bus & Motor
Unknown
Mass
Unknown
Launch date (UTC)
1981-06-04 (44 years ago)
Launch vehicle
Unknown
Launch site
Plesetsk Missile And Space Complex (PKMTR)
Object type
Payload
Rocket body
Debris
Shape & HBR
Unknown
Radar Cross Section
Small (<0.1 m²)

Expand to show TLE details & history

TLE from 23 hours ago
0 COSMOS 1275 DEB
1 42164U 81053SC  25186.95159858  .00005975  00000-0  14770-2 0  9993
2 42164  82.9205 272.1262 0021833  45.4399 314.8577 14.51787100605200
Epoch: 2025-07-05T22:50Z
TLE epoch observation values (Epoch: 2025-07-05T22:50:18.117Z)
Latitude
-0.00006°
Longitude
5.36843°
Altitude
711.908 km
Speed
7.505 km/s
True Right ascension
18h 08m 30s
True Declination
0° 00' 00"
Sunlit
Object was in full shadow at epoch
Visualization orbit readout
Latitude
67.83678°
Longitude
22.19655°
Altitude
717.656 km
Speed
7.51 km/s
Apparent Right ascension
21h 15m 22s
Apparent Declination
19° 23' 36"
Sunlit
Object is in daylight
Visualization observer readout
Local Sidereal Time
10:18:45
Azimuth
17.103° NNE
Elevation
-28.876°
Doppler factor
1
Orbital elements
Apogee altitude
732.352 km
Perigee altitude
701.371 km
Semi-major axis
7,094.999 km
Eccentricity
0.00218
Inclination
82.9205°
RAAN
272.1262°
Arg. of periapsis
45.4399°
True anomaly
Unknown
Mean anomaly
314.8577°
Eccentric anomaly
Unknown
Mean motion
3.63174 °/min
Orbital period
99.13 mins
BSTAR
0.001477
Loading maneuver chart data...
Loading SW <> Apogee altitude chart data...
Loading historical data...
Loading historical data...
Loading historical data...
Loading historical data...
Loading historical data...
Loading historical data...
Loading historical data...

COSMOS 1275 DEB Visibility forecast

Observer location: undefined°, undefined°

Span
Click to sort rows by Start time (UTC) header in descending order
Start Az.
Max El. time (UTC)
Max El. Az.
Max El.
End time (UTC)
End Az.
9 mins2025-07-07 06:22:38.480Z186.114° SSW2025-07-07 06:26:38.480Z191.005° SSW44.116°2025-07-07 06:31:38.480Z6.761° NNE
7 mins2025-07-07 16:46:38.480Z26.218° NE2025-07-07 16:49:38.480Z81.246° E27.205°2025-07-07 16:53:38.480Z137.638° SSE
6 mins2025-07-07 18:26:38.480Z314.359° NW2025-07-07 18:29:38.480Z263.621° W23.047°2025-07-07 18:32:38.480Z221.982° SW
|